• en Belgique
  • Liste des pays
  • À 7 jours
  • Température de l'eau
  • Carte satellitaire
  • Carte météo
  • Widgets météo
  • user-avatar
    Se connecter

    Météo par heure à Siemierz

    Ce jour, 21 Septembre, Vendredi

    Heure Température Précipitation Vent Pression Humidité
    00:00 +18°C° 0 mm 1 m/s 744 mmHg 71%
    01:00 +18°C° 0 mm 1 m/s 744 mmHg 73%
    02:00 +16°C° 0 mm 1 m/s 744 mmHg 75%
    03:00 +16°C° 0 mm 1 m/s 744 mmHg 76%
    04:00 +16°C° 0 mm 1 m/s 744 mmHg 78%
    05:00 +15°C° 0 mm 1 m/s 744 mmHg 79%
    06:00 +16°C° 0 mm 1 m/s 744 mmHg 77%
    07:00 +17°C° 0 mm 2 m/s 744 mmHg 76%
    08:00 +18°C° 0 mm 2 m/s 744 mmHg 72%
    09:00 +20°C° 0 mm 2 m/s 744 mmHg 67%
    10:00 +23°C° 0 mm 2 m/s 744 mmHg 61%
    11:00 +24°C° 0 mm 3 m/s 744 mmHg 56%
    12:00 +25°C° 0 mm 3 m/s 743 mmHg 53%
    13:00 +26°C° 0 mm 3 m/s 743 mmHg 49%
    14:00 +27°C° 0 mm 3 m/s 743 mmHg 46%
    15:00 +27°C° 0 mm 3 m/s 742 mmHg 49%
    16:00 +26°C° 0 mm 3 m/s 742 mmHg 52%
    17:00 +26°C° 0 mm 3 m/s 741 mmHg 56%
    18:00 +24°C° 0 mm 3 m/s 741 mmHg 60%
    19:00 +21°C° 0 mm 3 m/s 741 mmHg 65%
    20:00 +20°C° 0 mm 3 m/s 741 mmHg 70%
    21:00 +19°C° 0 mm 3 m/s 741 mmHg 70%
    22:00 +19°C° 0 mm 3 m/s 740 mmHg 70%
    23:00 +18°C° 0 mm 3 m/s 740 mmHg 70%

    Demain, 22 Septembre, Samedi

    Heure Température Précipitation Vent Pression Humidité
    00:00 +18°C° 0 mm 4 m/s 740 mmHg 69%
    01:00 +18°C° 0 mm 4 m/s 740 mmHg 69%
    02:00 +17°C° 0 mm 4 m/s 739 mmHg 69%
    03:00 +17°C° 0 mm 4 m/s 739 mmHg 66%
    04:00 +18°C° 0 mm 4 m/s 740 mmHg 64%
    05:00 +18°C° 0 mm 4 m/s 740 mmHg 61%
    06:00 +16°C° 0.4 mm 5 m/s 740 mmHg 68%
    07:00 +16°C° 0.4 mm 5 m/s 741 mmHg 75%
    08:00 +16°C° 0.4 mm 6 m/s 742 mmHg 81%
    09:00 +15°C° 0.5 mm 5 m/s 743 mmHg 82%
    10:00 +14°C° 0.5 mm 4 m/s 743 mmHg 84%
    11:00 +13°C° 0.5 mm 3 m/s 744 mmHg 85%
    12:00 +13°C° 0.7 mm 3 m/s 744 mmHg 85%
    13:00 +12°C° 0.7 mm 3 m/s 744 mmHg 84%
    14:00 +12°C° 0.7 mm 3 m/s 745 mmHg 84%
    15:00 +12°C° 0.2 mm 3 m/s 745 mmHg 84%
    16:00 +12°C° 0.2 mm 3 m/s 744 mmHg 84%
    17:00 +12°C° 0.2 mm 3 m/s 744 mmHg 84%
    18:00 +11°C° 0 mm 3 m/s 744 mmHg 87%
    19:00 +11°C° 0 mm 3 m/s 744 mmHg 89%
    20:00 +10°C° 0 mm 3 m/s 744 mmHg 91%
    21:00 +10°C° 0 mm 3 m/s 744 mmHg 90%
    22:00 +9°C° 0 mm 3 m/s 744 mmHg 88%
    23:00 +9°C° 0 mm 3 m/s 744 mmHg 87%

    Après-demain, 23 Septembre, Dimanche

    Heure Température Précipitation Vent Pression Humidité
    00:00 +9°C° 0 mm 3 m/s 744 mmHg 87%
    01:00 +9°C° 0 mm 3 m/s 744 mmHg 87%
    02:00 +9°C° 0 mm 3 m/s 744 mmHg 87%
    03:00 +8°C° 0 mm 3 m/s 744 mmHg 87%
    04:00 +8°C° 0 mm 3 m/s 744 mmHg 87%
    05:00 +8°C° 0 mm 3 m/s 744 mmHg 87%
    06:00 +8°C° 0 mm 4 m/s 744 mmHg 84%
    07:00 +10°C° 0 mm 4 m/s 744 mmHg 81%
    08:00 +10°C° 0 mm 4 m/s 744 mmHg 78%
    09:00 +12°C° 0 mm 5 m/s 744 mmHg 71%
    10:00 +13°C° 0 mm 5 m/s 744 mmHg 64%
    11:00 +15°C° 0 mm 6 m/s 744 mmHg 57%
    12:00 +15°C° 0.1 mm 6 m/s 744 mmHg 56%
    13:00 +16°C° 0.1 mm 6 m/s 744 mmHg 54%
    14:00 +16°C° 0.1 mm 6 m/s 743 mmHg 53%
    15:00 +16°C° 0 mm 5 m/s 743 mmHg 56%
    16:00 +15°C° 0 mm 4 m/s 743 mmHg 59%
    17:00 +16°C° 0 mm 3 m/s 743 mmHg 62%
    18:00 +14°C° 0 mm 3 m/s 743 mmHg 66%
    19:00 +13°C° 0 mm 3 m/s 742 mmHg 70%
    20:00 +12°C° 0 mm 3 m/s 742 mmHg 74%
    21:00 +12°C° 0 mm 3 m/s 742 mmHg 74%
    22:00 +12°C° 0 mm 3 m/s 741 mmHg 75%
    23:00 +12°C° 0 mm 3 m/s 740 mmHg 75%

    24 Septembre, Lundi

    Heure Température Précipitation Vent Pression Humidité
    00:00 +12°C° 0.2 mm 3 m/s 739 mmHg 78%
    01:00 +12°C° 0.2 mm 4 m/s 737 mmHg 80%
    02:00 +12°C° 0.2 mm 4 m/s 736 mmHg 82%
    03:00 +12°C° 3.5 mm 5 m/s 734 mmHg 83%
    04:00 +11°C° 3.5 mm 6 m/s 733 mmHg 85%
    05:00 +11°C° 3.5 mm 6 m/s 731 mmHg 86%
    06:00 +12°C° 1.4 mm 8 m/s 730 mmHg 85%
    07:00 +13°C° 1.4 mm 9 m/s 728 mmHg 85%
    08:00 +14°C° 1.4 mm 11 m/s 727 mmHg 85%
    09:00 +12°C° 0.4 mm 12 m/s 728 mmHg 82%
    10:00 +10°C° 0.4 mm 13 m/s 729 mmHg 80%
    11:00 +9°C° 0.4 mm 14 m/s 730 mmHg 77%
    12:00 +9°C° 0.1 mm 13 m/s 732 mmHg 76%
    13:00 +9°C° 0.1 mm 12 m/s 734 mmHg 74%
    14:00 +9°C° 0.1 mm 11 m/s 737 mmHg 72%
    15:00 +9°C° 0.1 mm 10 m/s 738 mmHg 69%
    16:00 +11°C° 0.1 mm 9 m/s 738 mmHg 65%
    17:00 +11°C° 0.1 mm 8 m/s 739 mmHg 62%
    18:00 +10°C° 0 mm 8 m/s 740 mmHg 63%
    19:00 +9°C° 0 mm 7 m/s 741 mmHg 65%
    20:00 +8°C° 0 mm 7 m/s 741 mmHg 66%
    21:00 +8°C° 0 mm 7 m/s 742 mmHg 68%
    22:00 +6°C° 0 mm 7 m/s 743 mmHg 70%
    23:00 +6°C° 0 mm 7 m/s 743 mmHg 72%

    25 Septembre, Mardi

    Heure Température Précipitation Vent Pression Humidité
    00:00 +6°C° 0 mm 7 m/s 744 mmHg 72%
    01:00 +5°C° 0 mm 7 m/s 744 mmHg 72%
    02:00 +5°C° 0 mm 7 m/s 744 mmHg 72%
    03:00 +5°C° 0 mm 7 m/s 745 mmHg 72%
    04:00 +4°C° 0 mm 7 m/s 746 mmHg 72%
    05:00 +4°C° 0 mm 7 m/s 746 mmHg 72%
    06:00 +4°C° 0 mm 7 m/s 747 mmHg 71%
    07:00 +5°C° 0 mm 7 m/s 748 mmHg 70%
    08:00 +5°C° 0 mm 7 m/s 748 mmHg 68%
    09:00 +6°C° 0 mm 8 m/s 749 mmHg 64%
    10:00 +7°C° 0 mm 8 m/s 749 mmHg 60%
    11:00 +9°C° 0 mm 8 m/s 750 mmHg 56%
    12:00 +10°C° 0.3 mm 8 m/s 750 mmHg 56%
    13:00 +10°C° 0.3 mm 8 m/s 750 mmHg 55%
    14:00 +10°C° 0.3 mm 8 m/s 750 mmHg 55%
    15:00 +10°C° 0.1 mm 8 m/s 750 mmHg 55%
    16:00 +9°C° 0.1 mm 7 m/s 751 mmHg 56%
    17:00 +9°C° 0.1 mm 7 m/s 751 mmHg 57%
    18:00 +8°C° 0 mm 6 m/s 752 mmHg 59%
    19:00 +7°C° 0 mm 5 m/s 752 mmHg 61%
    20:00 +6°C° 0 mm 4 m/s 752 mmHg 63%
    21:00 +6°C° 0 mm 4 m/s 753 mmHg 64%
    22:00 +6°C° 0 mm 4 m/s 753 mmHg 66%
    23:00 +6°C° 0 mm 4 m/s 753 mmHg 67%

    26 Septembre, Mercredi

    Heure Température Précipitation Vent Pression Humidité
    00:00 +6°C° 0 mm 5 m/s 753 mmHg 69%
    01:00 +6°C° 0 mm 5 m/s 753 mmHg 70%
    02:00 +6°C° 0 mm 5 m/s 753 mmHg 72%
    03:00 +6°C° 0 mm 5 m/s 752 mmHg 74%
    04:00 +5°C° 0 mm 6 m/s 752 mmHg 75%
    05:00 +5°C° 0 mm 6 m/s 752 mmHg 76%
    06:00 +5°C° 0 mm 6 m/s 752 mmHg 75%
    07:00 +5°C° 0 mm 7 m/s 752 mmHg 75%
    08:00 +6°C° 0 mm 7 m/s 752 mmHg 74%
    09:00 +8°C° 0.1 mm 7 m/s 751 mmHg 71%
    10:00 +9°C° 0.1 mm 8 m/s 751 mmHg 69%
    11:00 +9°C° 0.1 mm 8 m/s 751 mmHg 67%
    12:00 +10°C° 0.1 mm 8 m/s 751 mmHg 65%
    13:00 +10°C° 0.1 mm 8 m/s 751 mmHg 63%
    14:00 +11°C° 0.1 mm 8 m/s 750 mmHg 60%
    15:00 +11°C° 0 mm 7 m/s 750 mmHg 60%
    16:00 +11°C° 0 mm 6 m/s 750 mmHg 61%
    17:00 +12°C° 0 mm 5 m/s 750 mmHg 61%
    18:00 +12°C° 0 mm 4 m/s 750 mmHg 61%
    19:00 +11°C° 0 mm 4 m/s 750 mmHg 61%
    20:00 +10°C° 0 mm 4 m/s 750 mmHg 62%
    21:00 +10°C° 0 mm 4 m/s 750 mmHg 63%
    22:00 +9°C° 0 mm 3 m/s 750 mmHg 65%
    23:00 +9°C° 0 mm 3 m/s 750 mmHg 67%
    Voir plus